Location: Newark
(37.9717°N, 99.9089°W)
Time: 21:52:21
(UTC+00:00)

OTV 5 (USA 277) - Pass Details

Date: 26 August 2019
Orbit: 310 x 324 km, 54.5° (Epoch: 17 October)

Event Time Altitude Azimuth Distance (km) Brightness Sun altitude
Rises 01:41:43 0° 219° (SW) 2,032 ? -5.0°
Reaches altitude 10° 01:43:41 10° 215° (SW) 1,204 ? -5.4°
Maximum altitude 01:46:19 62° 134° (SE) 356 ? -5.9°
Drops below altitude 10° 01:48:58 10° 52° (NE) 1,207 ? -6.4°
Sets 01:50:56 0° 49° (NE) 2,037 ? -6.8°
